DEAGZ EDDG-EDDG

Flight info

Callsign DEAGZ
Flight time 0h 4m
Altitude
Route
Aircraft

Departure

Time 2026-04-22 14:27
Airport Münster Osnabrück Airport (EDDG)

Arrival

Time 2026-04-22 14:31
Airport Münster Osnabrück Airport (EDDG)
Time Latitude Longitude Altitude Speed Heading
2026-04-22 14:23 52.13302 7.68557 164 ft 15 kts 251°
2026-04-22 14:23 52.13237 7.68199 164 ft 46 kts 252°
2026-04-22 14:23 52.13110 7.67631 155 ft 50 kts 250°
2026-04-22 14:24 52.13024 7.67196 159 ft 23 kts 276°
2026-04-22 14:24 52.13065 7.67091 159 ft 7 kts 314°
2026-04-22 14:24 52.13079 7.67071 158 ft 0 kts 323°
2026-04-22 14:25 52.13108 7.67050 158 ft 14 kts 348°
2026-04-22 14:25 52.13175 7.67143 156 ft 5 kts 75°
2026-04-22 14:26 52.13175 7.67145 156 ft 0 kts 75°
2026-04-22 14:26 52.13177 7.67151 156 ft 7 kts 72°
2026-04-22 14:26 52.13255 7.67488 222 ft 42 kts 67°
2026-04-22 14:26 52.13348 7.67949 361 ft 52 kts 58°
2026-04-22 14:27 52.13476 7.68526 547 ft 56 kts 75°
2026-04-22 14:27 52.13571 7.69164 665 ft 67 kts 70°
2026-04-22 14:27 52.13713 7.69941 761 ft 81 kts 72°
2026-04-22 14:27 52.13792 7.70903 836 ft 90 kts 103°
2026-04-22 14:28 52.13292 7.71418 983 ft 98 kts 165°
2026-04-22 14:28 52.12621 7.71516 1188 ft 92 kts 168°
2026-04-22 14:28 52.12030 7.71059 1215 ft 106 kts 240°
2026-04-22 14:28 52.11747 7.69915 1232 ft 112 kts 254°
2026-04-22 14:29 52.11501 7.68700 1265 ft 113 kts 255°
2026-04-22 14:29 52.11249 7.67486 1298 ft 112 kts 253°
2026-04-22 14:29 52.10986 7.66303 1336 ft 112 kts 253°
2026-04-22 14:29 52.10730 7.65123 1321 ft 107 kts 256°
2026-04-22 14:30 52.11151 7.64473 1166 ft 96 kts 356°
2026-04-22 14:30 52.11835 7.64352 1029 ft 104 kts
2026-04-22 14:30 52.12504 7.64306 933 ft 81 kts
2026-04-22 14:30 52.12784 7.64853 681 ft 79 kts 78°
2026-04-22 14:31 52.12871 7.65600 557 ft 51 kts 77°
2026-04-22 14:31 52.12989 7.66212 484 ft 63 kts 70°
2026-04-22 14:31 52.13136 7.66905 234 ft 58 kts 68°
2026-04-22 14:31 52.13254 7.67485 162 ft 45 kts 71°
2026-04-22 14:32 52.13326 7.67859 157 ft 30 kts 72°
2026-04-22 14:32 52.13393 7.68150 162 ft 23 kts 75°
2026-04-22 14:32 52.13367 7.68258 164 ft 8 kts 154°
2026-04-22 14:32 52.13299 7.68299 164 ft 15 kts 159°
2026-04-22 14:33 52.13274 7.68410 163 ft 16 kts 69°
2026-04-22 14:33 52.13335 7.68699 162 ft 27 kts 70°
2026-04-22 14:33 52.13323 7.68863 159 ft 13 kts 168°
2026-04-22 14:33 52.13273 7.68763 161 ft 19 kts 250°
2026-04-22 14:34 52.13234 7.68746 162 ft 10 kts 159°
2026-04-22 14:34 52.13201 7.68764 162 ft 0 kts 160°